This demonstration page uses our WeatherBlox Daily Observations layout. Learn more.

36.17497, -115.13722

Hourly Observations for March 29, 2020

Temp ( °F °C ) Dew Point ( °F °C ) Humidity (%) Winds ( mph kmh ) Pressure ( in mb ) Visibility ( mi km ) Precip ( " mm )
12:53 am 00:53 Mostly Clear 58 14.4 21 -6.1 24 24 SSW 3 6 30.03 1017 10 16.0934 0 0
1:53 am 01:53 Cloudy 57 13.9 23 -5 27 27 Calm 30.02 1017 10 16.0934 0 0
2:53 am 02:53 Mostly Cloudy 57 13.9 25 -3.9 29 29 NW 3 6 30.01 1016 10 16.0934 0 0
3:53 am 03:53 Cloudy 56 13.3 27 -2.8 33 33 Calm 30 1016 10 16.0934 0 0
4:53 am 04:53 Cloudy 55 12.8 28 -2.2 35 35 Calm 30 1016 10 16.0934 0 0
5:53 am 05:53 Cloudy 56 13.3 27 -2.8 33 33 NE 7 11 30 1016 10 16.0934 0 0
6:53 am 06:53 Cloudy 56 13.3 27 -2.8 33 33 NE 5 7 30.01 1016 10 16.0934 0 0
7:53 am 07:53 Cloudy 58 14.4 27 -2.8 31 31 Calm 30.02 1017 10 16.0934 0 0
8:53 am 08:53 Sunny 59 15 26 -3.3 28 28 ESE 5 7 30.02 1017 10 16.0934 0 0
9:53 am 09:53 Mostly Cloudy 61 16.1 26 -3.3 26 26 ENE 6 9 30.03 1017 10 16.0934 0 0
10:53 am 10:53 Cloudy 62 16.7 26 -3.3 25 25 ESE 6 9 30.04 1017 10 16.0934 0 0
11:53 am 11:53 Mostly Sunny 62 16.7 26 -3.3 25 25 SE 9 15 30.01 1016 10 16.0934 0 0
12:53 pm 12:53 Mostly Cloudy 64 17.8 26 -3.3 24 24 ESE 7 11 30 1016 10 16.0934 0 0
1:53 pm 13:53 Cloudy 65 18.3 28 -2.2 25 25 S 16 26 29.98 1015 10 16.0934 0 0
2:53 pm 14:53 Mostly Cloudy 65 18.3 27 -2.8 24 24 VRB 3 6 29.94 1014 10 16.0934 0 0
3:53 pm 15:53 Cloudy 66 18.9 25 -3.9 21 21 S 13 20 29.92 1013 10 16.0934 0 0
4:22 pm 16:22 Cloudy with Light Rain 62 16.7 34 1.1 35 35 NW 21 33 29.85 1011 10 16.0934 0.001 0.001
4:53 pm 16:53 Mostly Cloudy with Light Rain 61 16.1 34 1.1 36 36 NNW 20 31 29.94 1014 10 16.0934 0.001 0.001
5:53 pm 17:53 Cloudy 59 15 36 2.2 42 42 NNW 18 30 29.96 1015 10 16.0934 0.001 0.001
6:53 pm 18:53 Mostly Cloudy 59 15 35 1.7 41 41 NW 17 28 29.98 1015 10 16.0934 0 0
7:53 pm 19:53 Partly Cloudy 58 14.4 34 1.1 41 41 NW 13 20 29.99 1016 10 16.0934 0 0
8:53 pm 20:53 Mostly Cloudy 58 14.4 34 1.1 41 41 NW 9 15 30.02 1017 10 16.0934 0 0
9:53 pm 21:53 Cloudy 58 14.4 35 1.7 42 42 NNW 13 20 30.03 1017 10 16.0934 0 0
10:53 pm 22:53 Clear 57 13.9 33 0.6 41 41 WNW 10 17 30.05 1018 10 16.0934 0 0
11:53 pm 23:53 Clear 55 12.8 34 1.1 45 45 NNE 3 6 30.07 1018 10 16.0934 0 0

Powered by AerisWeather